EHI
0 0 0 0 0 0 0 0 0 0 0 0 0 0 0 0 0 0 0 0 0 0 0 0 0 0 0 0 0 0 0 0 0 0 0 0 0 0 0 0 0 0 0 0
0 0 0 0 0 0 0 0 0 0 0 0 0 0 0 0 0 0 0 0 0 0 0 0 0 0 0 0 0 0 0 0 0 0 0 0 0 0 0 0 0 0 0 0
0 0 0 0 0 0 0 0 0 0 0 0 0 0 0 0 0 0 0 0 0 0 0 0 0 0 0 0 0 0 0 0 0 0 0 0 0 0 0 0 0 0 0 0
0 0 0 0 0 0 0 0 0 0 0 0 0 0 0 0 0 0 0 0 0 0 0 0 0 0 0 0 0 0 0 0 0 0 0 0 0 0 0 0 0 0 0 0
0 0 0 0 0 0 0 0 0 0 0 0 0 0 0 0 0 0 0 0 0 0 0 0 0 0 0 0 0 0 0 0 0 0 0 0 0 0 0 0 0 0 0 0
0 0 0 0 0 0 0 0 0 0 0 0 0 0 0 0 0 0 0 0 0 0 0 0 0 0 0 0 0 0 0 0 0 0 0 0 0 0 0 0 0 0 0 0
0 0 0 0 0 0 0 0 0 0 0 0 0 0 0 0 0 0 0 0 0 0 0 0 0 0 0 0 0 0 0 0 0 0 0 0 0 0 0 0 0 0 0 0
0 0 0 0 0 0 0 0 0 0 0 0 0 0 0 0 0 0 0 0 0 0 0 0 0 0 0 0 0 0 0 0 0 0 0 0 0 0 0 0 0 0 0 0
0 0 0 0 0 0 0 0 0 0 0 0 0 0 0 0 0 0 0 0 0 0 0 0 0 0 0 0 0 0 0 0 0 0 0 0 0 0 0 0 0 0 0 0
0 0 0 0 0 0 0 0 0 0 0 0 0 0 0 0 0 0 0 0 0 0 0 0 0 0 0 0 0 0 0 0 0 0 0 0 0 0 0 0 0 0 0 0
0 0 0 0 0 0 0 0 0 0 0 0 0 0 0 0 0 0 0 0 0 0 0 0 0 0 0 0 0 0 0 0 0 0 0 0 0 0 0 0 0 0 0 0
0 0 0 0 0 0 0 0 0 0 0 0 0 0 0 0 0 0 0 0 0 0 0 0 0 0 0 0 0 0 0 0 0 0 0 0 0 0 0 0 0 0 0 0
0 0 0 0 0 0 0 0 0 0 0 0 0 0 0 0 0 0 0 0 0 0 0 0 0 0 0 0 0 0 0 0 0 0 0 0 0 0 0 0 0 0 0 0
0 0 0 0 0 0 0 0 0 0 0 0 0 0 0 0 0 0 0 0 0 0 0 0 0 0 0 0 0 0 0 0 0 0 0 0 0 0 0 0 0 0 0 0
0 0 0 0 0 0 0 0 0 0 0 0 0 0 0 0 0 0 0 0 0 0 0 0 0 0 0 0 0 0 0 0 0 0 0 0 0 0 0 0 0 0 0 0
0 0 0 0 0 0 0 0 0 0 0 0 0 0 0 0 0 0 0 0 0 0 0 0 0 0 0 0 0 0 0 0 0 0 0 0 0 0 0 0 0 0 0 0
0 0 0 0 0 0 0 0 0 0 0 0 0 0 0 0 0 0 0 0 0 0 0 0 0 0 0 0 0 0 0 0 0 0 0 0 0 0 0 0 0 0 0 0
0 0 0 0 0 0 0 0 0 0 0 0 0 0 0 0 0 0 0 0 0 0 0 0 0 0 0 0 0 0 0 0 0 0 0 0 0 0 0 0 0 0 0 0
0 0 0 0 0 0 0 0 0 0 0 0 0 0 0 0 0 0 0 0 0 0 0 0 0 0 0 0 0 0 0 0 0 0 0 0 0 0 0 0 0 0 0 0
0 0 0 0 0 0 0 0 0 0 0 0 0 0 0 0 0 0 0 0 0 0 0 0 0 0 0 0 0 0 0 0 0 0 0 0 0 0 0 0 0 0 0 0
0 0 0 0 0 0 0 0 0 0 0 0 0 0 0 0 0 0 0 0 0 0 0 0 0 0 0 0 0 0 0 0 0 0 0 0 0 0 0 0 0 0 0 0
0 0 0 0 0 0 0 0 0 0 0 0 0 0 0 0 0 0 0 0 0 0 0 0 0 0 0 0 0 0 0 0 0 0 0 0 0 0 0 0 0 0 0 0
0 0 0 0 0 0 0 0 0 0 0 0 0 0 0 0 0 0 0 0 0 0 0 0 0 0 0 0 0 0 0 0 0 0 0 0 0 0 0 0 0 0 0 0
0 0 0 0 0 0 0 0 0 0 0 0 0 0 0 0 0 0 0 0 0 0 0 0 0 0 0 0 0 0 0 0 0 0 0 0 0 0 0 0 0 0 0 0
0 0 0 0 0 0 0 0 0 0 0 0 0 0 0 0 0 0 0 0 0 0 0 0 0 0 0 0 0 0 0 0 0 0 0 0 0 0 0 0 0 0 0 0
0 0 0 0 0 0 0 0 0 0 0 0 0 0 0 0 0 0 0 0 0 0 0 0 0 0 0 0 0 0 0 0 0 0 0 0 0 0 0 0 0 0 0 0
0 0 0 0 0 0 0 0 0 0 0 0 0 0 0 0 0 0 0 0 0 0 0 0 0 0 0 0 0 0 0 0 0 0 0 0 0 0 0 0 0 0 0 0
Wind_Speed
1 1 3 5 8 10 11 7 6 5 7 10 7 6 5 4 3 6 8 8 8 8 7 7 6 6 5 5 4 5 5 5 5 5 5 5 6 6 6 7 7 7 8 8
6 4 5 7 8 10 10 8 9 9 9 4 4 4 5 4 4 6 7 8 8 8 8 7 6 6 5 4 4 4 5 5 4 5 5 5 6 6 6 7 7 7 8 8
5 5 5 9 11 12 7 8 7 5 2 5 6 6 6 5 4 6 6 6 7 8 7 7 6 6 5 4 4 4 5 5 4 5 5 5 5 6 6 7 7 8 8 8
3 6 8 4 5 7 6 6 8 7 7 6 7 6 6 5 6 6 5 6 7 7 7 7 6 6 5 4 5 5 5 4 4 4 5 5 5 6 6 6 6 7 7 8
4 5 4 4 6 7 6 5 5 6 4 3 4 4 2 2 3 5 4 4 5 6 6 6 6 6 6 5 5 5 5 4 4 4 4 5 5 6 6 6 7 7 7 7
5 6 5 5 8 5 5 6 4 4 2 1 3 2 4 5 4 3 3 4 4 5 6 7 6 6 7 7 6 6 5 5 5 5 5 6 6 6 5 6 6 7 6 7
8 7 4 6 6 6 7 4 4 3 2 2 3 4 5 5 4 4 3 3 4 5 6 6 6 6 8 8 7 5 5 6 6 6 7 6 6 6 6 6 6 7 7 6
7 8 5 7 8 7 3 4 2 2 1 2 3 3 4 4 4 4 3 2 3 5 5 5 6 7 9 9 7 5 6 7 8 8 7 6 7 7 6 6 7 7 6 6
6 1 5 3 2 2 2 2 1 1 1 2 2 2 3 4 4 4 4 3 3 4 5 5 6 7 9 9 7 7 8 9 9 9 8 8 8 8 7 6 6 6 5 5
6 6 5 4 3 2 3 3 1 1 0 0 1 2 3 4 5 5 6 5 4 4 5 5 5 5 8 9 8 8 10 10 9 9 9 9 7 7 7 7 6 6 5 5
7 5 6 6 5 4 3 4 4 4 4 3 3 4 5 5 7 7 7 6 5 5 5 7 6 6 6 7 8 9 10 10 10 10 9 9 9 8 9 8 7 7 6 5
8 10 9 8 9 7 7 6 6 6 7 6 6 6 6 7 7 7 8 8 7 8 8 8 8 8 8 8 8 9 10 10 8 8 8 8 8 8 11 12 9 11 11 9
3 6 6 10 10 9 8 7 7 7 7 7 7 7 7 7 7 8 9 10 10 10 10 10 9 10 11 11 10 9 10 10 8 8 8 8 8 8 8 9 14 14 15 15
9 10 10 10 10 10 10 9 9 9 8 8 7 7 7 7 8 9 10 10 9 10 10 11 11 11 13 13 12 11 11 9 9 8 8 9 9 9 8 9 8 8 13 17
12 8 8 11 13 12 11 10 10 9 9 8 8 8 8 8 8 8 9 8 9 10 11 11 11 12 13 13 13 13 10 8 8 9 9 9 9 9 9 10 9 9 8 9
14 10 13 15 14 13 12 11 10 9 8 8 7 7 7 7 7 7 8 8 9 10 11 11 12 13 13 14 14 11 9 10 11 10 9 9 8 8 9 9 9 9 9 9
20 17 17 17 16 14 12 10 9 9 8 8 7 7 6 6 7 7 8 8 8 8 10 11 12 13 13 14 14 10 10 11 12 10 9 9 9 9 9 9 9 9 9 9
15 15 16 17 15 14 13 11 10 9 8 7 7 6 6 7 7 7 7 7 7 8 10 11 12 12 12 13 13 10 10 11 11 11 10 9 10 10 10 10 10 11 10 9
14 16 16 15 14 13 12 11 10 9 8 7 7 7 7 6 6 6 6 7 8 9 10 12 13 12 12 14 14 10 11 12 12 11 11 11 11 10 10 10 10 10 10 10
17 17 17 15 14 12 12 11 10 9 7 7 7 6 6 5 5 5 5 6 6 6 8 10 11 10 12 13 14 10 11 12 12 12 11 11 12 12 11 11 12 11 11 10
18 17 16 14 13 12 11 10 9 9 7 6 5 5 4 4 3 3 4 4 5 7 8 8 7 8 10 12 12 9 10 11 11 11 11 11 12 12 12 13 13 12 12 11
16 15 15 14 13 11 10 9 8 8 7 5 4 3 2 1 1 2 2 3 5 7 7 6 7 10 13 15 9 9 10 10 10 10 10 11 11 12 12 13 13 12 13 13
14 13 13 13 12 11 10 8 8 7 6 5 4 3 1 1 2 3 3 4 5 8 8 7 9 14 17 12 9 9 10 11 10 10 10 10 11 11 11 13 12 12 12 13
13 12 12 11 10 10 10 8 7 5 5 4 4 4 3 3 3 3 4 5 7 9 8 8 11 14 15 9 9 9 10 10 10 10 11 11 10 11 11 11 12 12 13 15
11 11 11 11 10 8 8 8 7 6 6 5 5 5 5 4 5 5 6 7 8 9 9 9 11 13 11 9 10 10 10 10 11 12 11 11 11 11 11 11 11 12 12 13
10 9 8 9 7 6 6 6 5 5 5 5 5 5 5 4 6 6 6 8 9 9 9 8 9 9 9 10 10 11 11 11 11 11 12 12 13 13 12 12 15 12 12 12
9 8 7 6 6 5 5 5 5 5 5 5 5 5 5 5 5 6 7 7 7 7 8 8 8 9 9 10 11 11 11 11 11 12 12 12 12 12 13 15 13 12 12 12
Wind_Direction
223 122 207 217 198 199 221 245 271 299 298 306 326 327 317 296 252 227 225 223 227 234 243 252 262 274 291 297 277 263 265 276 293 305 309 315 320 320 318 319 321 328 325 327
202 198 229 240 225 212 228 246 257 278 286 297 316 298 288 274 250 238 231 227 228 232 239 247 254 264 276 280 275 265 268 277 288 294 305 308 318 321 321 319 321 324 321 327
206 174 228 239 216 201 205 214 231 252 323 338 313 315 308 304 273 259 249 233 229 232 239 250 259 269 282 306 296 274 275 280 284 292 302 309 316 314 314 313 318 317 319 322
219 194 229 97 105 177 200 216 223 254 287 303 308 306 288 279 273 271 254 236 229 229 231 239 247 251 268 273 269 268 273 279 281 283 289 295 301 307 310 314 316 314 316 317
228 225 234 170 172 180 197 184 195 231 268 309 319 270 150 53 289 274 270 248 236 233 234 237 243 252 259 260 262 270 275 273 270 269 277 289 299 307 315 315 314 315 318 310
223 237 228 146 135 165 206 180 163 214 261 320 284 280 60 32 349 308 272 250 239 229 232 237 241 246 258 267 267 267 266 259 259 261 268 276 288 298 305 304 306 306 309 310
229 241 241 119 139 174 210 146 135 199 253 265 276 351 5 348 336 325 303 263 240 235 235 237 239 239 251 261 265 268 257 252 250 250 257 266 276 280 285 291 298 304 310 304
208 223 205 135 171 202 69 87 148 207 252 281 299 328 343 350 350 342 323 300 258 247 245 240 238 242 254 264 273 267 249 246 247 247 250 252 253 265 273 279 283 290 299 308
215 218 77 152 197 35 326 253 222 248 282 284 285 347 4 8 8 3 350 335 298 272 269 260 245 247 262 271 274 261 251 247 248 250 246 247 252 256 261 263 272 287 294 301
220 215 186 179 196 212 242 245 257 252 285 226 85 43 35 31 23 15 10 1 339 307 290 288 282 265 270 282 281 268 261 260 255 253 250 242 240 250 254 260 265 273 282 290
222 177 171 197 195 182 170 162 141 114 90 77 82 64 49 44 32 22 17 11 2 347 335 328 323 310 300 297 289 278 271 268 265 259 257 258 248 242 248 249 253 262 275 278
218 189 188 175 161 166 161 147 137 125 104 82 73 69 62 53 38 28 23 17 13 7 357 349 345 341 337 325 306 289 281 277 272 267 259 256 257 248 227 237 233 226 239 257
143 135 133 132 146 156 149 135 125 116 106 96 80 71 67 61 46 39 33 27 21 17 10 6 4 2 355 342 326 306 291 286 281 274 268 260 257 258 260 233 226 233 233 232
146 138 144 158 156 154 144 134 124 112 100 90 83 75 70 64 54 43 34 28 25 25 21 16 12 8 357 348 338 323 309 299 290 281 273 267 263 258 258 263 252 237 225 225
178 181 159 149 147 149 148 146 136 121 108 95 84 75 69 63 55 45 35 26 27 28 22 15 11 5 356 349 343 334 327 318 311 299 287 276 269 263 258 256 257 257 249 215
165 156 150 152 152 153 155 152 138 125 114 103 91 80 72 68 61 51 40 30 28 27 18 11 9 1 354 350 345 338 334 328 318 306 296 288 278 270 263 258 255 255 251 248
160 165 166 161 157 154 151 144 134 127 119 108 97 88 82 76 65 50 38 30 30 27 18 9 3 355 354 355 349 342 339 338 332 319 313 306 298 288 280 272 265 260 257 251
175 166 163 158 152 147 142 138 132 126 117 111 108 98 83 69 58 45 34 27 28 30 20 9 0 348 355 1 350 344 344 344 342 339 332 326 318 306 297 289 282 275 271 257
155 150 147 145 144 142 140 138 133 127 123 121 112 99 86 73 60 47 38 35 26 19 10 3 350 353 359 4 352 345 348 347 347 346 342 337 328 323 316 308 300 291 284 277
144 142 140 139 141 140 139 138 135 130 126 122 116 107 94 76 57 42 34 40 31 8 356 352 346 357 356 359 349 347 350 349 348 348 348 346 343 339 333 327 319 311 302 292
143 142 142 143 142 142 143 143 140 135 132 129 122 110 95 78 52 28 13 17 18 359 343 335 341 354 353 343 335 346 348 348 347 348 348 346 344 342 340 338 332 326 320 312
146 147 148 147 147 147 148 146 143 141 143 144 142 137 129 83 15 354 360 342 337 337 325 330 341 347 338 327 330 339 341 342 342 342 343 343 342 340 339 338 334 332 329 325
149 150 151 154 154 150 150 154 156 157 162 168 175 187 221 294 309 311 319 333 327 330 315 316 329 324 320 317 326 329 331 333 334 334 335 335 335 335 334 333 332 331 328 327
151 153 154 154 154 158 165 168 170 175 185 196 210 228 248 264 273 274 285 290 291 300 298 308 306 310 310 309 318 321 322 323 323 324 325 326 326 326 326 326 326 325 323 323
155 157 158 162 170 175 175 172 179 189 203 214 223 227 238 252 268 284 291 294 297 293 297 303 305 306 303 309 314 314 314 315 316 314 311 314 315 317 318 318 319 318 317 317
162 166 170 181 183 181 179 184 195 199 204 214 224 231 236 241 252 262 273 283 290 292 293 301 306 304 307 311 311 311 310 309 307 305 307 309 309 310 310 311 313 312 311 311
171 172 177 184 187 192 194 199 210 214 216 223 233 238 245 254 262 271 280 286 293 296 299 302 305 306 307 307 308 308 308 307 306 305 305 304 304 305 306 307 306 305 304 304